Temp
4 4 4 4 5 5 5 5 6 6 6 6 6 6 6 6 6 6 6 6 6 6 5 5 5 6 6 5 5 5 5 4 4 4 4 4 3 3 4 4 3 3 3
4 4 4 4 5 5 5 5 5 6 6 6 6 6 6 6 6 6 6 6 6 6 6 5 5 5 5 5 5 5 5 4 4 4 4 4 4 3 3 4 3 3 3
3 3 4 4 4 4 4 4 5 5 5 5 6 6 6 6 6 6 6 7 7 6 6 6 5 5 5 5 5 5 5 5 4 4 4 4 4 3 3 3 3 3 3
2 2 3 3 3 3 3 4 4 5 5 5 5 5 6 6 6 6 6 6 7 7 7 6 6 5 5 5 5 5 5 5 4 4 4 4 4 4 3 3 3 3 4
1 1 1 2 2 2 3 3 3 4 4 5 5 5 5 5 6 6 6 6 6 7 7 7 6 5 5 5 5 5 5 5 4 4 4 4 4 3 3 3 4 3 3
1 1 1 1 1 1 2 2 3 3 4 4 5 5 5 5 5 6 6 6 6 6 7 7 6 5 5 5 5 5 4 4 4 4 4 4 4 4 3 3 3 3 3
0 -0 -0 -0 0 0 1 1 2 2 3 4 4 4 4 5 5 5 5 6 6 6 6 6 6 6 5 5 5 5 5 4 4 4 4 4 4 4 3 3 3 3 3
-1 -1 -1 -1 -0 -0 0 0 1 2 2 3 3 4 5 4 4 4 5 5 5 5 5 6 6 6 6 5 4 4 4 4 4 4 3 4 4 5 4 3 3 3 3
-2 -1 -1 -1 -1 -1 -1 -0 0 1 1 1 2 3 4 4 4 3 4 4 4 5 5 5 5 5 5 5 5 4 4 4 4 4 4 4 4 3 3 3 2 2 3
-2 -2 -2 -2 -2 -2 -2 -1 -1 -1 -0 -0 -0 0 1 2 2 3 2 2 3 3 3 3 4 4 5 5 5 4 4 4 5 4 4 4 4 4 2 2 2 2 2
-2 -2 -2 -2 -2 -3 -3 -2 -2 -2 -2 -1 -1 -1 -1 -1 -1 1 2 2 0 1 1 2 3 3 3 3 4 4 4 4 3 4 3 3 4 3 3 1 1 2 2
-3 -3 -3 -3 -3 -3 -3 -3 -3 -3 -3 -3 -3 -2 -2 -2 -2 -2 -0 1 1 -1 -1 1 1 1 2 2 2 2 3 3 3 3 3 3 3 3 3 2 2 1 2
-3 -4 -3 -4 -4 -4 -4 -4 -4 -4 -4 -4 -4 -4 -3 -3 -3 -3 -3 -2 -1 -1 -1 -1 -1 0 0 0 0 -1 -2 -1 3 2 3 2 2 3 2 2 1 1 1
-4 -4 -4 -4 -4 -4 -4 -4 -4 -4 -4 -4 -5 -5 -5 -5 -6 -6 -6 -5 -5 -3 -2 -3 -3 -2 -1 -2 -3 -3 -3 -3 -1 0 1 1 1 2 2 2 2 2 2
-5 -5 -5 -5 -5 -5 -5 -5 -5 -5 -4 -5 -5 -5 -5 -6 -6 -7 -7 -7 -6 -6 -5 -6 -6 -5 -5 -4 -4 -3 -2 -2 -2 -0 0 1 0 1 1 1 2 3 2
-5 -5 -5 -5 -5 -5 -5 -5 -5 -5 -5 -5 -5 -5 -6 -6 -6 -7 -7 -7 -6 -6 -6 -6 -6 -7 -6 -6 -5 -4 -4 -2 -2 -1 -2 -0 -1 0 1 1 2 1 2
-6 -6 -6 -6 -6 -6 -6 -6 -6 -6 -6 -5 -5 -5 -6 -6 -6 -6 -6 -7 -6 -6 -6 -6 -6 -6 -6 -5 -5 -4 -5 -4 -3 -2 -2 -0 -1 1 0 0 0 1 0
-6 -6 -6 -6 -7 -7 -7 -7 -7 -6 -6 -6 -6 -6 -6 -6 -6 -6 -6 -7 -7 -6 -6 -6 -6 -6 -5 -5 -5 -5 -5 -4 -4 -3 -2 -2 -1 -0 -0 -0 -0 1 0
-7 -7 -7 -7 -7 -7 -7 -7 -7 -7 -7 -7 -7 -7 -7 -6 -6 -6 -6 -6 -7 -7 -7 -7 -6 -6 -6 -6 -6 -5 -5 -5 -5 -4 -3 -3 -2 -2 -0 -1 -0 0 0
-7 -7 -7 -8 -8 -8 -8 -8 -7 -7 -7 -7 -7 -7 -7 -7 -7 -7 -6 -6 -7 -7 -7 -7 -7 -7 -7 -7 -7 -6 -6 -6 -5 -5 -4 -4 -4 -3 -2 -2 -1 -2 -1
-8 -8 -8 -8 -8 -8 -8 -8 -8 -8 -8 -8 -7 -7 -7 -7 -7 -7 -7 -7 -7 -7 -7 -7 -7 -7 -7 -8 -8 -8 -7 -7 -7 -6 -5 -4 -4 -4 -2 -2 -2 -2 -2
-8 -8 -8 -9 -9 -9 -9 -8 -8 -8 -8 -8 -8 -8 -8 -7 -7 -7 -7 -7 -7 -8 -8 -8 -7 -7 -7 -7 -7 -8 -8 -8 -8 -8 -7 -6 -6 -5 -4 -3 -3 -3 -2
-9 -9 -9 -9 -9 -9 -9 -9 -9 -9 -9 -8 -8 -8 -8 -8 -8 -8 -8 -8 -8 -8 -8 -8 -8 -8 -8 -8 -7 -7 -8 -8 -8 -8 -8 -8 -8 -7 -7 -6 -6 -5 -4
-9 -9 -10 -10 -10 -10 -10 -9 -9 -9 -9 -9 -9 -9 -9 -9 -9 -8 -8 -8 -9 -9 -9 -9 -9 -8 -8 -8 -8 -8 -8 -8 -7 -7 -8 -9 -9 -9 -9 -9 -8 -7 -7
-10 -10 -10 -10 -10 -10 -10 -10 -10 -10 -10 -10 -10 -10 -10 -10 -10 -9 -9 -9 -9 -9 -9 -9 -9 -9 -9 -9 -9 -8 -8 -9 -8 -8 -7 -7 -8 -8 -8 -8 -9 -9 -9
-10 -11 -11 -11 -11 -11 -11 -11 -11 -11 -11 -11 -11 -11 -11 -11 -10 -10 -10 -10 -10 -10 -10 -10 -10 -10 -10 -10 -10 -10 -10 -9 -9 -9 -9 -8 -8 -7 -8 -8 -7 -7 -7
Height
3114 3112 3110 3108 3106 3104 3103 3101 3099 3098 3097 3096 3096 3095 3095 3095 3095 3095 3097 3099 3101 3102 3104 3105 3107 3109 3110 3113 3113 3115 3116 3118 3118 3118 3120 3121 3123 3125 3126 3127 3128 3129 3130
3108 3105 3103 3101 3099 3097 3095 3093 3091 3089 3088 3087 3087 3086 3086 3086 3086 3086 3087 3089 3092 3093 3095 3095 3098 3100 3102 3105 3107 3108 3109 3111 3113 3113 3114 3115 3117 3119 3121 3122 3123 3124 3125
3101 3099 3096 3094 3091 3089 3086 3084 3081 3079 3078 3076 3076 3076 3076 3077 3077 3077 3078 3079 3080 3083 3085 3086 3087 3090 3093 3096 3099 3101 3102 3103 3106 3108 3109 3109 3111 3113 3115 3117 3118 3118 3119
3093 3090 3088 3085 3083 3080 3077 3074 3072 3069 3067 3066 3064 3063 3063 3064 3067 3067 3066 3067 3069 3071 3074 3076 3077 3079 3082 3085 3089 3092 3094 3095 3097 3100 3102 3104 3105 3106 3109 3111 3112 3113 3114
3086 3084 3081 3078 3074 3071 3068 3064 3062 3058 3056 3054 3051 3052 3051 3053 3052 3053 3055 3055 3057 3059 3061 3063 3065 3066 3070 3074 3078 3081 3085 3088 3089 3091 3093 3096 3099 3099 3102 3104 3107 3108 3109
3080 3078 3075 3071 3067 3063 3059 3055 3051 3048 3044 3041 3040 3039 3040 3039 3040 3039 3042 3044 3045 3046 3048 3051 3053 3056 3059 3061 3066 3070 3073 3077 3080 3082 3086 3086 3090 3093 3094 3097 3100 3102 3104
3074 3071 3068 3065 3061 3057 3052 3047 3043 3039 3035 3029 3028 3027 3027 3026 3026 3027 3028 3031 3032 3034 3036 3037 3041 3043 3046 3049 3052 3057 3062 3067 3070 3074 3077 3080 3083 3083 3086 3089 3092 3095 3098
3069 3067 3063 3060 3056 3051 3046 3041 3036 3031 3025 3019 3014 3013 3014 3015 3014 3013 3014 3017 3019 3021 3022 3024 3026 3029 3031 3036 3040 3045 3050 3054 3059 3064 3066 3069 3070 3073 3075 3079 3083 3087 3092
3064 3061 3059 3054 3050 3046 3041 3035 3029 3021 3017 3012 3005 3001 2998 3000 3003 3003 3001 3004 3004 3008 3011 3012 3014 3017 3019 3023 3028 3033 3036 3041 3047 3052 3055 3058 3050 3056 3064 3071 3075 3079 3084
3059 3056 3054 3050 3045 3041 3036 3031 3024 3017 3009 3005 3000 2993 2987 2985 2988 2992 2993 2993 2994 2996 2998 3000 3002 3004 3007 3010 3014 3018 3024 3029 3034 3039 3043 3046 3047 3042 3032 3054 3066 3070 3076
3055 3052 3049 3046 3041 3037 3032 3027 3023 3014 3008 2999 2993 2988 2983 2978 2977 2978 2981 2985 2986 2985 2986 2988 2990 2993 2995 2997 3000 3005 3012 3016 3021 3028 3030 3035 3037 3044 3035 3040 3057 3061 3066
3051 3048 3044 3042 3038 3034 3031 3026 3021 3015 3008 2998 2990 2981 2978 2974 2972 2970 2970 2973 2977 2979 2976 2978 2980 2983 2985 2988 2990 2992 2997 3003 3008 3014 3020 3025 3026 3030 3029 3040 3038 3049 3055
3047 3045 3041 3038 3034 3030 3027 3023 3019 3014 3007 2999 2990 2982 2976 2970 2968 2966 2965 2965 2969 2970 2969 2970 2971 2973 2975 2978 2980 2982 2986 2990 2995 3001 3006 3014 3018 3022 3027 3027 3031 3038 3045
3043 3040 3036 3033 3030 3027 3023 3020 3016 3011 3006 2999 2993 2984 2975 2969 2966 2964 2962 2962 2963 2963 2963 2963 2964 2964 2966 2970 2973 2976 2980 2983 2987 2991 2995 3001 3007 3013 3016 3019 3024 3029 3035
3038 3035 3032 3030 3026 3024 3021 3018 3014 3009 3005 3000 2995 2987 2978 2971 2965 2962 2960 2959 2958 2959 2958 2959 2960 2960 2962 2964 2967 2968 2972 2975 2981 2982 2985 2989 2994 2999 3003 3007 3011 3016 3021
3034 3032 3030 3027 3024 3021 3019 3015 3012 3008 3004 3000 2995 2989 2982 2975 2968 2962 2960 2958 2957 2957 2957 2957 2957 2958 2960 2960 2961 2960 2964 2968 2972 2975 2979 2981 2984 2988 2992 2997 3001 3004 3007
3032 3029 3027 3025 3022 3020 3017 3014 3010 3007 3003 2999 2996 2991 2985 2980 2973 2966 2961 2959 2957 2955 2955 2955 2955 2956 2956 2957 2958 2957 2958 2959 2964 2969 2971 2974 2975 2979 2983 2986 2990 2994 2996
3029 3027 3025 3023 3021 3018 3015 3013 3009 3006 3002 3000 2996 2992 2988 2983 2978 2973 2967 2962 2958 2956 2954 2953 2952 2952 2952 2952 2953 2953 2953 2953 2955 2960 2962 2965 2967 2970 2974 2975 2972 2979 2983
3027 3025 3023 3021 3019 3017 3014 3012 3008 3005 3002 2999 2996 2992 2989 2984 2981 2976 2971 2967 2963 2958 2955 2953 2951 2950 2949 2949 2949 2949 2950 2949 2950 2951 2953 2955 2958 2962 2963 2965 2966 2967 2970
3024 3023 3021 3020 3018 3016 3014 3011 3009 3006 3002 2999 2996 2993 2989 2985 2981 2977 2973 2969 2965 2961 2958 2956 2953 2951 2949 2947 2946 2945 2945 2944 2944 2945 2947 2948 2950 2952 2953 2954 2956 2958 2961
3023 3021 3020 3018 3017 3015 3013 3011 3009 3006 3003 3000 2997 2994 2990 2986 2982 2979 2975 2971 2967 2964 2961 2958 2955 2953 2951 2948 2945 2942 2941 2941 2942 2941 2941 2943 2942 2944 2946 2946 2947 2950 2951
3021 3020 3018 3017 3016 3014 3013 3011 3008 3006 3003 3000 2997 2994 2990 2987 2984 2980 2977 2973 2970 2966 2964 2960 2957 2954 2952 2950 2947 2944 2942 2940 2939 2938 2938 2938 2937 2936 2937 2938 2940 2941 2943
3019 3018 3017 3016 3015 3014 3012 3010 3008 3005 3002 2999 2996 2993 2990 2987 2983 2980 2977 2973 2970 2967 2964 2961 2957 2955 2951 2949 2947 2945 2943 2941 2939 2938 2937 2936 2935 2933 2932 2932 2932 2932 2934
3017 3016 3016 3015 3014 3013 3011 3009 3007 3004 3001 2998 2995 2992 2988 2985 2982 2979 2975 2973 2970 2966 2963 2960 2957 2954 2951 2948 2946 2944 2942 2939 2938 2936 2935 2935 2935 2933 2931 2929 2930 2929 2928
3015 3015 3014 3014 3013 3011 3009 3007 3004 3002 2999 2996 2992 2989 2986 2983 2979 2976 2973 2970 2966 2963 2961 2958 2955 2951 2949 2946 2944 2942 2940 2938 2935 2935 2933 2933 2933 2933 2933 2929 2928 2926 2925
3012 3012 3012 3011 3010 3009 3007 3005 3002 3000 2997 2994 2991 2987 2983 2980 2976 2973 2970 2967 2963 2960 2957 2954 2951 2948 2946 2944 2942 2940 2937 2935 2934 2932 2930 2930 2928 2930 2928 2927 2925 2924 2923
Wind_Speed
34 34 34 35 35 36 37 37 36 37 38 38 39 39 38 38 37 37 36 35 35 39 40 40 39 38 35 31 30 29 28 29 27 25 26 24 23 24 22 21 21 22 23
34 35 36 37 38 40 40 41 41 40 38 39 40 41 42 41 40 40 39 37 36 37 39 42 42 41 40 37 34 32 31 31 30 28 27 26 26 25 25 24 23 24 27
33 35 38 39 40 41 41 41 42 43 43 42 40 41 43 44 44 42 41 41 39 39 39 41 45 42 42 43 39 36 36 34 33 31 30 29 28 27 26 25 24 25 26
33 34 35 37 38 39 41 42 43 43 44 45 45 44 44 44 43 44 44 43 42 42 41 41 43 47 45 45 44 42 40 38 36 34 32 32 30 29 27 26 26 25 26
31 32 33 34 36 38 40 42 43 45 45 45 47 47 46 45 45 46 46 46 45 44 44 43 44 46 48 48 46 45 43 42 40 38 34 33 33 31 30 28 27 27 27
28 30 31 32 33 35 37 39 41 42 44 46 47 47 46 47 47 46 47 47 46 47 47 46 45 46 48 50 51 49 47 44 43 41 36 33 36 34 33 31 29 29 28
27 27 28 29 30 31 33 36 38 40 41 45 46 46 44 46 46 47 47 47 48 47 48 49 48 48 49 51 52 53 51 48 47 45 40 43 40 38 36 35 31 30 30
26 27 27 28 29 29 30 31 33 35 36 40 43 44 44 43 44 44 46 46 47 49 49 49 51 51 51 52 53 53 54 52 50 49 47 47 45 43 41 39 35 33 33
24 25 26 27 28 30 31 32 33 33 32 32 36 40 42 41 40 37 40 40 43 44 47 48 50 51 53 53 53 53 56 56 56 51 52 51 52 49 45 42 38 36 36
26 27 28 28 27 28 29 32 34 33 32 29 26 31 36 39 37 38 34 36 38 38 40 43 46 48 51 53 54 55 55 57 58 59 57 54 56 54 54 45 40 38 38
27 28 28 28 27 27 27 28 31 34 36 32 28 23 26 29 34 36 34 31 29 33 36 39 43 42 45 48 50 53 54 55 57 60 60 59 55 53 50 49 50 43 41
26 26 26 26 25 24 24 24 27 30 35 37 32 27 24 23 23 29 31 27 28 22 28 34 38 40 42 43 44 45 48 52 54 56 58 52 47 48 51 41 49 49 43
23 23 23 23 22 21 22 22 23 26 31 35 35 30 23 20 20 21 22 22 21 15 18 22 29 34 38 40 40 40 36 37 47 49 51 58 54 53 44 38 40 48 43
21 21 21 22 20 20 19 19 20 23 27 31 35 37 33 22 16 17 18 16 12 11 14 14 17 24 31 37 35 33 34 34 24 39 46 46 47 49 52 49 36 41 52
20 20 20 20 19 19 19 19 19 20 22 26 29 33 37 33 21 15 15 13 10 8 11 12 13 17 17 22 34 37 33 32 24 25 30 43 44 44 43 42 43 39 49
18 18 18 18 18 18 18 18 19 20 20 22 26 28 30 35 33 21 15 14 11 8 8 12 11 12 11 16 21 27 41 38 31 24 27 26 39 44 42 42 46 49 55
16 16 16 16 16 16 16 17 18 18 18 19 21 23 26 27 31 33 24 12 12 9 8 9 13 12 12 16 17 16 20 32 34 36 28 26 33 30 35 40 46 51 56
14 14 14 13 13 14 14 15 15 15 16 17 19 20 21 23 26 26 30 27 16 12 8 11 11 15 18 15 15 18 22 21 30 39 34 39 34 27 41 36 48 47 53
13 13 13 12 12 12 12 14 14 14 15 16 18 20 22 23 23 23 26 24 26 29 24 13 10 13 14 15 16 16 18 21 18 24 32 35 39 31 39 35 35 37 46
11 10 10 11 11 12 13 13 13 13 15 16 19 20 21 23 25 26 25 23 24 23 23 25 26 15 11 12 14 15 17 18 18 17 18 27 32 43 38 36 38 34 31
8 7 8 9 11 12 13 13 13 13 15 16 17 18 20 23 24 25 25 25 24 23 22 18 18 20 22 20 14 9 10 12 15 14 13 20 21 41 40 47 46 37 41
6 6 7 8 9 10 11 11 13 14 15 16 18 20 22 22 23 23 23 23 23 21 20 19 16 13 14 14 17 17 15 11 10 12 12 14 18 19 22 32 38 37 35
5 5 6 6 7 9 10 12 13 15 16 18 19 21 22 22 23 24 23 23 22 21 20 18 17 15 12 10 12 11 11 13 16 14 10 8 6 7 12 16 18 18 22
5 4 5 6 7 9 11 13 15 17 18 20 22 22 23 23 23 24 24 23 21 20 19 18 17 14 13 12 11 9 9 9 9 11 14 13 13 14 10 8 8 10 12
5 6 6 8 10 11 14 16 18 20 22 23 24 25 26 26 25 25 25 24 23 21 20 18 17 17 16 14 13 12 12 12 11 11 11 13 12 11 14 14 16 15 13
6 7 8 10 11 13 15 17 19 21 22 24 24 25 26 26 26 26 25 24 23 23 22 21 20 19 17 16 15 15 14 14 15 14 14 14 14 15 15 14 14 15 16
Wind_Direction
294 291 289 288 290 289 290 288 286 284 283 281 279 274 268 264 262 262 260 258 254 251 252 252 255 258 257 251 249 247 247 252 248 245 248 248 247 251 252 250 247 245 239
295 294 293 293 291 292 291 289 286 282 277 276 276 277 275 271 266 264 264 261 259 254 251 250 250 252 256 254 249 245 245 245 248 248 245 247 245 247 251 252 249 248 242
297 296 296 296 295 292 290 288 286 285 283 279 274 271 270 271 271 268 265 264 261 259 255 251 249 248 250 253 251 250 244 243 244 246 248 244 242 243 249 252 253 254 245
301 299 298 296 294 292 290 288 285 282 280 279 277 274 272 270 269 269 266 263 261 259 256 252 249 247 244 247 249 249 248 242 240 243 243 246 243 243 243 250 251 249 241
305 305 305 303 301 299 296 294 290 287 282 278 275 274 271 271 269 267 265 262 261 259 256 252 248 246 245 243 245 246 247 245 240 240 240 244 244 242 240 244 248 246 239
309 309 309 309 308 306 303 299 295 292 288 283 277 274 273 270 266 263 263 261 258 257 256 255 250 246 245 243 240 243 244 242 242 240 240 245 243 243 239 238 242 244 242
314 316 316 316 315 313 310 306 301 296 290 285 282 277 275 271 267 265 262 260 257 255 253 253 252 247 243 243 241 239 240 242 240 241 238 237 246 239 239 237 236 239 240
316 316 316 318 319 320 322 321 314 304 297 290 284 279 273 267 266 265 263 260 258 256 253 251 251 250 247 243 242 240 239 238 240 243 238 236 240 240 235 234 234 235 234
314 315 317 320 323 326 328 331 330 322 311 298 290 284 277 270 265 261 259 257 256 255 255 252 252 251 251 247 243 241 241 238 240 240 242 243 239 234 232 233 232 234 233
315 317 318 320 324 327 331 335 339 340 333 320 304 291 285 280 274 262 255 258 257 255 253 252 250 250 251 251 247 243 240 241 239 240 239 242 248 261 231 228 233 233 236
314 315 317 318 324 327 332 339 343 348 350 343 327 306 289 284 281 278 267 254 255 259 257 255 254 251 251 251 252 248 244 241 241 240 239 244 244 247 258 224 239 232 234
311 312 315 318 322 325 328 338 346 352 356 356 346 329 307 290 283 280 277 270 267 252 258 259 257 255 253 253 253 254 249 244 242 240 240 241 247 255 245 250 231 227 231
308 311 315 318 322 325 327 333 345 352 356 1 4 357 336 312 299 293 288 284 277 273 260 255 256 254 253 253 252 252 254 249 244 242 240 238 244 249 250 257 238 224 231
310 315 319 319 322 326 326 330 339 351 356 5 10 13 10 355 331 316 313 307 303 281 269 259 248 251 252 250 250 251 255 257 260 246 241 238 242 241 247 250 251 230 229
318 321 321 320 328 331 332 337 342 348 354 3 8 14 18 17 3 339 326 322 317 299 279 262 260 266 259 258 244 242 243 256 245 234 252 237 237 237 243 245 243 242 232
318 319 321 326 332 333 337 341 346 349 353 359 7 12 17 22 23 14 356 347 329 317 292 296 277 278 275 269 269 252 241 242 238 247 234 247 235 237 241 242 241 230 225
317 322 325 329 332 336 340 344 351 353 357 360 2 10 17 20 26 30 27 14 358 325 282 309 293 293 289 272 292 273 271 252 243 241 235 233 224 226 243 240 237 238 237
319 322 327 330 336 341 346 351 356 0 10 11 9 10 15 22 26 29 39 39 20 0 318 295 285 287 293 285 280 279 271 275 245 238 235 228 230 236 234 248 231 234 244
325 328 328 335 342 348 355 357 2 8 16 21 25 24 22 23 20 22 27 31 42 42 32 353 318 289 288 291 292 279 285 277 272 248 248 243 230 240 229 242 234 241 246
327 331 340 345 352 357 6 4 7 14 19 22 24 23 24 23 24 22 21 20 25 31 36 37 31 11 333 313 296 291 284 284 267 273 256 242 244 248 251 253 254 259 246
326 338 348 354 357 1 1 1 6 13 15 18 19 17 17 18 17 15 16 16 17 15 18 21 31 33 31 24 13 341 305 289 280 268 259 253 251 240 247 258 258 262 257
318 334 350 359 1 0 360 1 6 9 10 9 8 7 8 9 6 6 5 4 6 9 7 6 7 16 16 15 25 21 11 6 348 292 286 264 262 259 256 248 248 257 255
325 340 348 357 0 359 357 355 357 357 356 355 355 355 353 355 358 356 357 356 355 352 355 356 356 352 354 3 2 359 9 12 3 354 7 338 289 276 273 265 257 251 252
309 321 332 341 344 345 345 345 345 346 346 345 345 346 346 347 347 347 348 348 345 344 343 341 341 345 345 346 344 343 341 340 343 345 337 343 337 326 306 301 286 261 243
295 306 317 326 330 335 337 338 338 338 338 338 340 340 339 340 340 340 338 336 337 337 335 332 332 335 337 337 337 332 329 327 329 330 320 323 306 303 306 303 307 304 301
289 299 307 315 320 325 328 330 331 331 331 332 333 334 334 334 333 333 333 332 331 329 328 329 330 330 329 328 328 327 324 321 317 311 303 304 303 297 300 291 279 279 279